Temp
70 67 67 66 66 68 68 67 69 69 69 70 70 71 72 71 69 68 69 69 70 70 71 72 71 71 71 71 70 71 71 71 70 68 66 67 67 64 64 64 64 66 66 66 70 68 66 61 61 66 67 66 67 67 69 70 70 69 68 70 72 73 72
68 67 68 68 67 67 66 67 68 69 68 67 69 69 70 71 71 70 69 68 69 70 73 73 71 71 70 69 68 69 69 70 70 69 67 67 69 65 64 64 67 67 67 67 67 69 67 63 62 62 62 66 66 67 67 69 70 70 70 70 72 72 71
67 67 68 67 67 68 67 66 67 68 69 68 68 68 69 70 70 70 71 71 70 71 72 72 71 70 69 69 69 69 69 69 70 70 68 68 69 68 68 67 66 66 67 68 68 68 68 68 63 63 64 63 60 63 66 68 70 71 72 71 71 73 71
67 67 67 66 67 68 68 67 67 67 68 68 68 67 67 69 68 69 69 70 70 70 69 70 70 71 69 69 68 68 68 68 69 68 68 68 69 68 69 70 69 69 68 67 67 68 68 65 64 63 65 67 64 60 63 67 69 72 73 71 71 70 71
68 68 68 67 68 68 67 67 67 68 67 67 67 68 67 67 68 68 68 68 68 68 68 69 68 69 68 68 68 68 67 67 68 68 67 66 67 68 68 69 70 70 70 70 70 69 69 67 66 64 65 67 67 67 67 66 70 70 71 71 72 71 71
68 69 69 67 67 68 67 67 68 68 68 68 68 68 66 66 68 68 68 68 68 67 67 68 67 67 68 68 68 67 67 67 68 68 67 66 67 68 67 68 71 71 69 69 69 69 68 68 68 65 67 69 64 65 68 68 66 70 71 71 72 71 72
68 68 68 68 67 68 68 68 68 69 69 68 68 67 66 67 68 67 67 66 66 66 66 66 66 67 67 70 68 67 66 66 66 66 66 65 66 66 67 68 68 68 67 68 68 68 67 67 67 65 63 65 66 66 68 69 69 68 68 70 71 71 70
67 67 67 67 66 66 65 66 67 68 69 68 68 66 66 66 66 66 66 66 65 65 66 66 66 66 66 68 68 65 65 66 66 66 66 65 64 65 66 67 66 67 67 68 69 69 70 69 68 67 65 61 62 65 64 68 67 66 66 68 70 70 69
66 65 65 64 64 64 62 65 66 66 67 67 66 66 65 66 66 66 66 65 65 65 65 66 66 67 66 67 67 66 64 66 65 65 66 66 64 64 65 66 67 67 67 68 70 69 70 69 68 68 69 68 63 60 63 63 65 63 67 67 68 68 69
64 64 62 62 61 61 61 63 65 65 65 66 66 66 65 65 65 66 66 65 64 65 65 65 65 66 66 67 67 66 65 66 67 66 66 66 65 65 66 66 67 67 67 67 68 68 67 68 69 69 71 70 69 64 62 61 61 62 64 67 66 66 68
63 62 61 61 60 59 60 62 64 65 66 66 66 65 66 65 65 65 66 65 65 65 65 65 66 66 66 66 66 66 65 66 65 65 66 66 65 66 66 66 67 67 67 68 67 67 67 68 68 69 70 70 71 67 65 62 59 63 63 64 66 65 67
61 59 58 59 58 58 60 62 64 64 64 66 67 66 66 67 66 66 66 66 66 65 65 65 65 66 67 66 66 65 65 66 66 65 65 65 65 66 66 65 66 66 66 66 66 67 67 68 68 69 69 69 68 67 66 65 60 60 64 61 63 66 65
65 63 61 60 60 61 61 61 62 63 65 67 67 67 68 67 67 67 67 67 66 67 67 66 66 66 66 66 67 67 66 67 68 67 66 66 67 67 66 66 67 67 67 68 67 67 67 67 67 69 68 68 67 67 67 65 62 59 62 63 63 64 65
63 63 63 63 62 62 62 62 62 64 65 65 66 67 68 68 69 68 68 68 68 67 67 66 66 67 67 66 66 66 67 68 68 67 67 65 66 67 68 68 67 66 66 67 67 67 68 68 67 67 68 68 67 66 66 65 62 59 60 62 63 63 63
65 64 63 63 63 63 63 63 62 63 63 65 67 68 69 67 68 68 68 68 67 67 67 66 66 67 68 66 65 65 66 67 68 67 67 68 67 66 66 67 67 66 67 68 67 70 69 69 69 69 68 68 68 66 67 66 64 62 58 60 61 64 63
66 65 63 63 63 64 63 64 64 63 64 64 64 67 67 66 67 68 67 67 67 67 67 67 66 66 66 66 67 66 65 66 67 67 67 67 69 68 66 66 67 66 65 66 66 67 67 68 70 70 67 68 66 65 67 68 65 61 60 59 61 62 61
65 64 64 64 63 63 64 64 65 65 65 64 65 65 66 67 66 66 66 66 67 67 67 67 66 67 66 66 66 66 66 65 66 67 67 69 69 68 68 66 66 65 65 65 66 66 66 67 67 68 65 65 65 64 64 64 66 64 62 60 60 64 62
64 63 63 64 63 64 64 65 65 66 65 65 65 65 66 67 67 68 66 67 68 68 68 68 67 66 66 66 66 65 66 66 65 66 66 66 64 67 67 67 68 67 66 66 65 66 66 64 68 66 66 66 66 64 63 65 65 65 63 61 59 60 61
63 64 64 63 62 62 63 65 65 65 66 65 64 65 65 66 68 69 69 69 69 69 69 68 68 67 67 66 66 66 66 66 66 67 66 66 67 67 66 68 68 67 67 66 66 65 65 65 65 64 64 65 66 63 62 62 63 64 64 63 62 59 60
64 64 64 64 62 63 64 64 65 65 66 66 65 65 66 66 67 69 69 69 69 69 68 68 68 67 67 67 66 66 65 66 66 66 66 67 67 67 67 68 67 67 67 67 67 66 65 64 63 63 63 61 64 63 62 64 65 64 63 62 61 61 61
64 65 65 66 64 63 63 63 65 65 66 65 66 66 66 66 65 65 65 67 67 67 67 68 67 65 66 65 65 65 65 65 66 67 66 67 66 67 67 67 67 67 67 68 68 67 66 65 64 64 63 63 63 62 63 62 62 63 63 62 63 61 62
65 66 66 66 65 64 63 64 64 65 65 65 63 64 63 63 63 63 64 64 64 63 63 63 63 62 61 60 61 62 64 66 66 67 67 68 68 67 67 67 67 67 65 60 56 57 59 60 65 64 62 62 61 61 62 63 63 63 62 62 61 61 61
65 65 66 66 65 65 64 62 63 64 65 65 64 63 61 61 61 61 62 64 61 60 61 61 57 52 52 56 56 59 62 65 66 66 66 66 67 67 67 67 66 58 54 53 50 48 47 48 52 62 63 61 61 61 61 61 61 62 62 61 62 61 60
65 64 65 65 65 65 65 64 65 64 64 61 60 59 59 60 59 59 60 60 60 60 60 59 50 47 46 47 58 62 63 65 66 65 65 65 65 66 67 68 67 61 57 54 55 46 45 45 45 46 51 52 55 62 62 60 61 62 61 60 59 58 57
64 64 64 65 65 65 64 63 64 64 62 60 58 58 58 58 58 58 60 62 63 63 61 53 46 46 45 44 48 62 63 62 63 63 64 64 66 66 65 65 65 64 64 64 64 62 52 44 43 44 44 46 45 40 42 56 59 58 58 59 57 57 57
65 64 65 65 65 64 64 63 63 62 61 62 61 60 60 59 61 61 62 63 63 64 64 48 44 44 44 44 42 50 62 62 61 62 63 63 63 63 64 63 63 63 64 55 58 62 63 58 44 42 42 41 40 40 39 38 41 54 61 59 58 57 57
63 63 62 63 63 64 63 62 63 63 62 62 61 61 61 61 62 62 63 64 63 63 64 47 44 44 44 42 41 45 60 59 60 60 60 60 60 61 61 62 63 63 63 62 62 61 61 60 56 54 54 57 57 50 43 42 42 42 50 58 58 56 55
61 61 61 61 61 62 62 62 62 62 62 62 61 60 61 61 62 62 62 63 63 61 61 44 43 43 42 42 39 45 59 58 59 58 58 57 57 58 59 60 61 61 60 60 59 57 60 59 59 58 58 56 56 56 55 55 55 56 56 56 56 55 54
62 62 62 61 60 60 59 59 58 57 56 58 61 62 62 62 61 61 61 61 61 61 58 41 41 41 41 38 42 59 60 59 59 59 58 57 57 59 59 59 60 59 59 58 47 44 52 60 60 58 56 55 54 53 50 44 40 43 50 54 55 54 55
61 61 61 60 61 60 60 59 58 59 58 59 60 60 60 61 61 60 58 60 61 61 58 44 40 40 39 40 50 61 59 59 58 57 56 56 58 58 58 59 60 60 59 57 43 41 44 52 59 58 56 53 52 53 51 49 43 39 39 38 38 37 37
60 58 56 57 59 60 61 61 61 60 57 56 56 57 57 56 58 60 60 59 61 59 57 46 39 40 40 43 51 60 61 61 57 56 55 55 57 57 52 45 53 59 56 54 39 41 42 54 59 58 56 53 52 52 50 50 51 47 39 38 37 37 38
60 59 59 58 58 58 58 58 59 59 60 61 59 57 57 58 56 57 58 58 52 57 56 48 39 40 40 40 51 62 62 61 58 57 57 56 57 57 55 48 42 48 50 45 37 39 42 53 59 57 56 55 54 52 51 51 50 50 51 51 50 48 47
59 60 61 59 57 57 58 58 56 56 55 56 54 54 54 55 54 53 54 55 55 58 57 56 48 39 41 40 45 62 63 62 60 57 59 58 56 56 55 54 48 38 38 38 38 38 40 44 57 57 57 56 54 50 51 51 50 50 50 50 50 50 50
58 60 61 60 58 56 56 56 56 55 53 52 52 52 51 52 52 52 54 55 57 56 57 56 48 39 40 41 41 51 63 63 61 60 59 58 58 56 56 55 53 40 38 38 38 38 39 40 44 55 55 54 52 49 48 51 46 42 50 49 49 50 51
58 58 59 60 59 58 56 56 56 56 56 54 52 51 52 54 54 52 52 53 55 55 52 49 53 41 40 40 41 45 60 61 60 60 58 58 57 56 55 55 53 42 37 38 38 38 38 40 41 52 45 37 35 38 49 50 51 51 50 51 51 50 51
57 58 58 58 59 60 58 56 56 56 54 52 50 47 47 49 51 52 53 53 54 54 54 51 45 48 39 40 38 42 46 51 44 59 58 57 56 54 54 52 47 38 38 37 38 38 38 39 42 44 35 36 36 35 43 51 50 50 50 50 49 48 49
57 57 57 57 56 58 57 57 56 56 55 54 52 48 47 49 50 50 50 50 51 53 53 54 44 42 44 38 39 39 40 41 44 57 58 57 55 54 53 52 46 37 37 37 36 37 37 39 42 35 36 35 37 41 50 50 49 49 46 47 47 48 48
MSLP
1017.84 1018.28 1018.40 1018.56 1018.64 1018.64 1018.76 1018.96 1018.96 1019.12 1019.16 1019.16 1019.24 1019.32 1019.40 1019.56 1019.80 1019.96 1020.00 1020.08 1020.20 1020.24 1020.24 1020.24 1020.36 1020.44 1020.48 1020.64 1020.80 1020.84 1020.92 1021.00 1021.20 1021.48 1021.88 1021.92 1021.96 1022.48 1022.44 1022.56 1022.56 1022.48 1022.40 1022.40 1022.12 1022.24 1022.68 1023.72 1024.28 1024.00 1023.88 1023.80 1023.64 1023.64 1023.60 1023.52 1023.40 1023.40 1023.40 1023.24 1023.08 1023.00 1023.00
1017.88 1018.12 1018.24 1018.40 1018.56 1018.64 1018.88 1019.04 1019.08 1019.20 1019.36 1019.48 1019.48 1019.52 1019.52 1019.60 1019.80 1019.96 1020.12 1020.24 1020.32 1020.28 1020.16 1020.16 1020.32 1020.48 1020.72 1020.84 1021.00 1021.12 1021.16 1021.16 1021.16 1021.28 1021.60 1021.72 1021.64 1022.20 1022.52 1022.60 1022.40 1022.40 1022.44 1022.40 1022.44 1022.16 1022.48 1023.28 1023.84 1024.08 1024.28 1024.00 1023.84 1023.96 1023.92 1023.76 1023.68 1023.56 1023.48 1023.44 1023.32 1023.24 1023.28
1017.92 1018.20 1018.28 1018.60 1018.72 1018.76 1018.96 1019.16 1019.24 1019.32 1019.44 1019.60 1019.72 1019.76 1019.76 1019.80 1019.92 1020.04 1020.12 1020.20 1020.28 1020.24 1020.24 1020.32 1020.52 1020.72 1020.84 1020.92 1021.00 1021.08 1021.12 1021.24 1021.20 1021.24 1021.44 1021.56 1021.60 1021.92 1021.96 1022.16 1022.36 1022.52 1022.40 1022.44 1022.44 1022.48 1022.60 1022.52 1023.28 1023.76 1023.72 1023.92 1024.36 1024.56 1024.20 1024.00 1023.84 1023.68 1023.60 1023.60 1023.52 1023.40 1023.44
1017.88 1018.04 1018.32 1018.64 1018.76 1018.84 1019.00 1019.24 1019.32 1019.52 1019.60 1019.76 1019.84 1019.92 1019.96 1019.96 1020.08 1020.12 1020.20 1020.32 1020.36 1020.48 1020.60 1020.68 1020.76 1020.80 1021.00 1021.12 1021.24 1021.24 1021.28 1021.32 1021.36 1021.52 1021.64 1021.68 1021.76 1021.92 1021.96 1021.92 1022.08 1022.04 1022.24 1022.48 1022.56 1022.48 1022.52 1022.96 1023.20 1023.64 1023.60 1023.56 1024.08 1024.64 1024.60 1024.28 1023.96 1023.80 1023.72 1023.72 1023.72 1023.76 1023.68
1017.56 1017.72 1017.92 1018.32 1018.56 1018.80 1019.04 1019.32 1019.48 1019.56 1019.76 1019.88 1020.00 1020.04 1020.20 1020.20 1020.20 1020.28 1020.40 1020.48 1020.60 1020.72 1020.84 1020.84 1020.92 1020.96 1021.08 1021.12 1021.20 1021.28 1021.40 1021.48 1021.52 1021.60 1021.76 1021.96 1021.96 1022.04 1022.12 1022.04 1022.08 1022.08 1022.16 1022.20 1022.32 1022.32 1022.36 1022.56 1022.72 1023.28 1023.52 1023.72 1023.72 1024.04 1024.40 1024.40 1024.12 1024.04 1024.00 1023.88 1023.84 1023.88 1023.88
1017.56 1017.68 1017.88 1018.24 1018.52 1018.76 1019.04 1019.28 1019.44 1019.60 1019.80 1019.96 1020.12 1020.20 1020.40 1020.44 1020.36 1020.44 1020.48 1020.56 1020.68 1020.84 1020.92 1020.96 1021.08 1021.16 1021.16 1021.16 1021.32 1021.44 1021.52 1021.60 1021.60 1021.68 1021.88 1022.04 1022.04 1022.12 1022.32 1022.32 1022.16 1022.16 1022.36 1022.36 1022.40 1022.44 1022.48 1022.48 1022.64 1023.16 1023.44 1023.28 1023.84 1024.04 1024.16 1024.08 1024.36 1024.20 1024.12 1024.12 1024.08 1024.08 1024.00
1017.92 1018.04 1018.16 1018.40 1018.72 1018.84 1019.04 1019.28 1019.40 1019.52 1019.72 1019.96 1020.20 1020.36 1020.56 1020.52 1020.56 1020.68 1020.76 1020.84 1020.92 1020.96 1021.04 1021.16 1021.24 1021.32 1021.28 1021.24 1021.40 1021.52 1021.72 1021.84 1021.84 1021.96 1022.12 1022.28 1022.32 1022.40 1022.32 1022.36 1022.40 1022.48 1022.60 1022.56 1022.60 1022.56 1022.68 1022.68 1022.80 1023.08 1023.60 1023.72 1023.60 1023.88 1023.92 1023.88 1023.96 1023.92 1024.32 1024.28 1024.28 1024.28 1024.32
1018.00 1018.12 1018.36 1018.60 1018.92 1019.16 1019.32 1019.44 1019.60 1019.72 1019.76 1020.04 1020.24 1020.56 1020.68 1020.72 1020.80 1020.88 1021.00 1021.08 1021.20 1021.24 1021.28 1021.36 1021.44 1021.52 1021.52 1021.48 1021.56 1021.80 1021.92 1022.00 1022.08 1022.12 1022.28 1022.36 1022.52 1022.56 1022.52 1022.52 1022.64 1022.68 1022.68 1022.64 1022.56 1022.48 1022.44 1022.52 1022.60 1022.88 1023.08 1023.84 1024.08 1023.80 1023.96 1023.96 1024.12 1024.36 1024.40 1024.56 1024.52 1024.48 1024.56
1018.44 1018.52 1018.72 1018.96 1019.28 1019.56 1019.88 1019.68 1019.84 1020.00 1020.08 1020.24 1020.44 1020.68 1020.92 1020.92 1021.00 1021.12 1021.20 1021.40 1021.48 1021.56 1021.60 1021.64 1021.72 1021.72 1021.84 1021.80 1021.96 1022.08 1022.28 1022.28 1022.28 1022.36 1022.44 1022.52 1022.64 1022.72 1022.72 1022.76 1022.68 1022.84 1022.84 1022.80 1022.68 1022.76 1022.68 1022.76 1022.80 1022.92 1022.80 1022.84 1023.40 1024.16 1023.96 1024.12 1024.12 1024.64 1024.52 1024.36 1024.56 1024.72 1024.64
1019.04 1019.32 1019.44 1019.48 1019.52 1019.56 1019.84 1020.16 1019.96 1020.16 1020.32 1020.40 1020.56 1020.80 1021.00 1021.12 1021.24 1021.32 1021.40 1021.60 1021.72 1021.80 1021.88 1021.92 1022.00 1022.04 1022.08 1022.12 1022.24 1022.40 1022.56 1022.64 1022.56 1022.68 1022.72 1022.72 1022.92 1022.92 1022.96 1022.96 1022.96 1023.04 1023.12 1023.12 1023.08 1023.08 1023.12 1023.04 1023.00 1023.00 1022.72 1022.76 1022.80 1023.36 1023.88 1024.20 1024.56 1024.52 1024.76 1024.68 1024.52 1024.84 1024.84
1018.84 1019.20 1019.76 1019.96 1019.88 1020.12 1020.32 1020.16 1020.08 1020.16 1020.28 1020.44 1020.56 1020.80 1020.96 1021.16 1021.28 1021.44 1021.52 1021.68 1021.80 1021.88 1021.96 1022.04 1022.08 1022.20 1022.20 1022.32 1022.52 1022.64 1022.84 1022.84 1022.96 1023.00 1023.08 1023.08 1023.20 1023.16 1023.20 1023.16 1023.12 1023.20 1023.28 1023.20 1023.32 1023.36 1023.32 1023.28 1023.20 1023.08 1023.08 1022.96 1022.84 1023.08 1023.40 1023.84 1024.76 1024.68 1024.84 1025.00 1024.92 1024.92 1025.00
1018.48 1018.32 1018.76 1019.60 1020.12 1019.96 1020.16 1020.36 1020.20 1020.16 1020.32 1020.40 1020.48 1020.72 1020.92 1021.04 1021.24 1021.40 1021.48 1021.64 1021.76 1021.88 1021.96 1022.12 1022.20 1022.28 1022.32 1022.44 1022.64 1022.84 1023.00 1022.96 1023.04 1023.24 1023.32 1023.36 1023.40 1023.36 1023.40 1023.48 1023.36 1023.44 1023.48 1023.48 1023.48 1023.52 1023.52 1023.48 1023.44 1023.40 1023.44 1023.36 1023.40 1023.40 1023.52 1023.64 1024.32 1025.12 1024.96 1025.16 1025.28 1025.28 1025.24
1018.00 1018.32 1018.88 1019.16 1019.64 1020.08 1020.08 1020.32 1020.32 1020.28 1020.28 1020.32 1020.48 1020.60 1020.80 1020.96 1021.12 1021.28 1021.44 1021.56 1021.72 1021.80 1021.96 1022.12 1022.20 1022.32 1022.40 1022.48 1022.60 1022.72 1022.96 1022.96 1023.00 1023.16 1023.32 1023.36 1023.40 1023.40 1023.44 1023.48 1023.52 1023.52 1023.56 1023.48 1023.52 1023.56 1023.60 1023.64 1023.60 1023.52 1023.60 1023.64 1023.76 1023.80 1023.76 1023.80 1024.16 1025.04 1025.32 1025.28 1025.32 1025.40 1025.44
1018.08 1018.44 1018.76 1019.16 1019.48 1019.80 1020.04 1020.24 1020.40 1020.32 1020.36 1020.36 1020.44 1020.64 1020.76 1020.92 1021.04 1021.20 1021.36 1021.52 1021.68 1021.84 1021.96 1022.16 1022.28 1022.32 1022.36 1022.52 1022.64 1022.76 1022.88 1022.88 1022.92 1023.08 1023.16 1023.36 1023.36 1023.36 1023.32 1023.44 1023.60 1023.72 1023.68 1023.56 1023.56 1023.60 1023.56 1023.68 1023.76 1023.76 1023.72 1023.72 1023.88 1023.92 1023.88 1024.04 1024.36 1025.04 1025.52 1025.60 1025.48 1025.44 1025.60
1018.04 1018.32 1018.64 1019.00 1019.24 1019.56 1019.80 1020.08 1020.32 1020.48 1020.48 1020.40 1020.32 1020.40 1020.60 1020.88 1021.04 1021.20 1021.36 1021.56 1021.72 1021.84 1022.00 1022.16 1022.32 1022.32 1022.36 1022.52 1022.68 1022.84 1022.92 1022.92 1022.96 1023.08 1023.16 1023.16 1023.32 1023.40 1023.44 1023.40 1023.52 1023.68 1023.68 1023.60 1023.64 1023.40 1023.52 1023.60 1023.56 1023.64 1023.72 1023.68 1023.80 1024.04 1024.00 1023.92 1024.28 1024.48 1025.16 1025.52 1025.52 1025.56 1025.56
1018.08 1018.32 1018.60 1018.76 1019.04 1019.24 1019.48 1019.72 1020.04 1020.32 1020.48 1020.56 1020.52 1020.44 1020.56 1020.80 1021.00 1021.16 1021.40 1021.60 1021.72 1021.88 1021.96 1022.16 1022.32 1022.36 1022.48 1022.56 1022.60 1022.76 1022.88 1022.92 1023.00 1023.08 1023.16 1023.16 1023.16 1023.28 1023.40 1023.44 1023.52 1023.64 1023.76 1023.72 1023.68 1023.60 1023.68 1023.60 1023.48 1023.56 1023.80 1023.80 1023.96 1024.08 1024.00 1023.88 1024.12 1024.48 1024.76 1025.24 1025.44 1025.28 1025.48
1018.12 1018.12 1018.00 1018.04 1018.40 1018.80 1019.16 1019.48 1019.72 1020.04 1020.28 1020.48 1020.56 1020.60 1020.60 1020.76 1021.00 1021.20 1021.44 1021.60 1021.76 1021.92 1022.04 1022.16 1022.24 1022.28 1022.44 1022.56 1022.68 1022.76 1022.92 1023.04 1023.08 1023.12 1023.08 1023.08 1023.08 1023.24 1023.20 1023.36 1023.40 1023.56 1023.64 1023.64 1023.64 1023.72 1023.72 1023.76 1023.72 1023.72 1023.96 1024.00 1024.08 1024.20 1024.20 1024.16 1024.00 1024.08 1024.40 1024.68 1025.20 1024.92 1025.16
1017.76 1017.44 1017.48 1017.96 1018.52 1018.92 1019.16 1019.40 1019.60 1019.76 1020.04 1020.28 1020.44 1020.64 1020.76 1020.76 1020.92 1021.04 1021.28 1021.40 1021.60 1021.80 1021.96 1022.12 1022.24 1022.36 1022.48 1022.52 1022.56 1022.64 1022.76 1022.84 1023.00 1023.08 1023.12 1023.12 1023.16 1023.08 1023.12 1023.12 1023.08 1023.24 1023.44 1023.48 1023.60 1023.60 1023.60 1023.76 1023.60 1023.76 1023.80 1023.88 1023.88 1024.12 1024.20 1024.08 1024.04 1024.08 1024.16 1024.36 1024.96 1025.20 1025.16
1017.76 1017.76 1017.96 1018.40 1018.88 1019.28 1019.44 1019.48 1019.60 1019.72 1019.76 1020.00 1020.28 1020.48 1020.64 1020.72 1020.72 1020.84 1020.96 1021.16 1021.32 1021.60 1021.80 1022.00 1022.16 1022.32 1022.44 1022.52 1022.60 1022.64 1022.64 1022.72 1022.80 1022.84 1022.92 1023.00 1022.96 1023.00 1023.04 1022.92 1022.92 1023.04 1023.16 1023.24 1023.24 1023.32 1023.48 1023.56 1023.68 1023.76 1023.84 1023.80 1023.84 1024.08 1024.16 1024.20 1024.16 1024.08 1024.00 1024.20 1024.36 1024.80 1025.12
1017.72 1017.76 1017.84 1018.32 1018.76 1018.88 1019.12 1019.40 1019.52 1019.68 1019.76 1019.84 1020.00 1020.16 1020.28 1020.44 1020.56 1020.60 1020.80 1021.00 1021.20 1021.40 1021.64 1021.76 1021.92 1022.12 1022.28 1022.40 1022.56 1022.64 1022.72 1022.72 1022.76 1022.80 1022.80 1022.76 1022.76 1022.76 1022.80 1022.80 1022.84 1022.88 1022.92 1022.88 1022.92 1023.04 1023.24 1023.40 1023.52 1023.56 1023.68 1023.88 1023.84 1023.96 1024.00 1023.96 1023.92 1023.96 1023.96 1024.12 1024.36 1024.48 1024.56
1017.80 1017.76 1017.76 1018.00 1018.36 1018.56 1018.72 1019.04 1019.28 1019.44 1019.56 1019.72 1019.80 1019.88 1020.04 1020.20 1020.44 1020.60 1020.80 1020.92 1021.16 1021.36 1021.48 1021.60 1021.84 1022.12 1022.20 1022.36 1022.56 1022.68 1022.72 1022.76 1022.64 1022.56 1022.52 1022.52 1022.52 1022.56 1022.56 1022.56 1022.60 1022.64 1022.68 1022.64 1022.68 1022.72 1022.92 1023.08 1023.24 1023.36 1023.56 1023.72 1023.84 1023.92 1023.88 1023.96 1023.96 1023.80 1023.84 1023.92 1023.92 1024.16 1024.32
1017.80 1017.80 1017.88 1018.04 1018.28 1018.44 1018.64 1018.92 1019.16 1019.32 1019.44 1019.68 1019.88 1019.92 1020.04 1020.16 1020.40 1020.56 1020.64 1020.72 1020.96 1021.20 1021.36 1021.44 1021.60 1021.88 1022.12 1022.52 1022.76 1022.92 1022.76 1022.64 1022.60 1022.48 1022.32 1022.20 1022.20 1022.24 1022.28 1022.32 1022.36 1022.40 1022.52 1022.72 1022.84 1022.84 1022.80 1022.84 1022.96 1023.16 1023.44 1023.60 1023.76 1023.80 1023.80 1023.80 1023.76 1023.72 1023.76 1023.84 1024.04 1024.12 1024.08
1017.84 1017.88 1017.92 1018.00 1018.20 1018.40 1018.60 1018.84 1019.04 1019.08 1019.20 1019.44 1019.76 1019.92 1020.00 1020.20 1020.36 1020.48 1020.64 1020.76 1020.80 1020.96 1021.24 1021.40 1021.36 1021.56 1022.04 1022.44 1022.72 1022.88 1022.88 1022.68 1022.52 1022.44 1022.32 1022.20 1022.08 1022.04 1022.08 1022.12 1022.16 1022.44 1022.68 1022.84 1022.92 1023.00 1023.08 1023.16 1023.08 1022.80 1023.04 1023.48 1023.60 1023.72 1023.72 1023.72 1023.76 1023.64 1023.64 1023.68 1023.68 1023.88 1023.96
1017.84 1017.92 1017.96 1018.00 1018.12 1018.28 1018.44 1018.60 1018.72 1018.92 1019.16 1019.44 1019.68 1020.12 1020.36 1020.40 1020.40 1020.44 1020.48 1020.68 1020.88 1021.00 1021.00 1021.08 1021.24 1021.32 1021.64 1022.20 1022.44 1022.52 1022.60 1022.48 1022.36 1022.32 1022.28 1022.24 1022.08 1021.88 1021.80 1021.84 1021.96 1022.20 1022.48 1022.64 1022.76 1022.92 1023.04 1023.16 1023.20 1023.20 1023.16 1023.16 1023.28 1023.40 1023.48 1023.68 1023.64 1023.60 1023.60 1023.68 1023.88 1024.16 1024.24
1017.84 1017.92 1017.96 1018.00 1018.04 1018.16 1018.36 1018.48 1018.56 1018.72 1019.08 1019.28 1019.36 1019.56 1019.88 1020.08 1020.20 1020.20 1020.28 1020.44 1020.64 1020.56 1020.60 1020.72 1021.00 1021.24 1021.60 1022.04 1022.40 1022.36 1022.28 1022.36 1022.32 1022.32 1022.24 1022.20 1022.00 1021.88 1021.84 1021.84 1021.92 1022.00 1022.08 1022.16 1022.20 1022.32 1022.76 1023.04 1023.24 1023.56 1023.68 1023.76 1023.92 1024.16 1024.20 1023.88 1023.68 1023.92 1023.96 1023.80 1024.08 1024.16 1024.24
1017.72 1017.80 1017.88 1017.92 1018.00 1018.16 1018.28 1018.44 1018.52 1018.72 1018.76 1018.56 1018.84 1019.08 1019.16 1019.72 1019.84 1019.80 1019.80 1020.00 1020.16 1020.28 1020.36 1020.68 1020.92 1021.16 1021.40 1021.76 1022.16 1022.48 1022.16 1022.16 1022.20 1022.12 1022.16 1022.16 1022.12 1022.08 1022.00 1021.96 1021.92 1021.96 1021.96 1022.40 1022.40 1022.24 1022.24 1022.76 1023.56 1023.80 1023.96 1024.32 1024.52 1024.56 1024.52 1024.60 1024.52 1024.16 1023.80 1023.84 1023.92 1024.16 1024.24
1017.84 1017.92 1018.04 1018.08 1018.12 1018.16 1018.32 1018.36 1018.32 1018.40 1018.48 1018.60 1018.76 1018.88 1019.08 1019.28 1019.36 1019.44 1019.52 1019.64 1019.88 1020.08 1020.28 1020.80 1020.96 1021.08 1021.32 1021.68 1022.20 1022.40 1022.24 1022.16 1022.20 1022.24 1022.32 1022.36 1022.40 1022.28 1022.24 1022.08 1021.92 1021.80 1021.92 1022.12 1022.16 1022.28 1022.36 1022.52 1023.12 1023.60 1023.84 1023.84 1023.96 1024.44 1024.56 1024.68 1024.60 1024.56 1024.44 1024.20 1024.16 1024.28 1024.76
1018.04 1018.00 1018.04 1018.16 1018.24 1018.24 1018.28 1018.36 1018.48 1018.56 1018.68 1018.76 1018.96 1019.16 1019.16 1019.20 1019.28 1019.32 1019.44 1019.52 1019.68 1020.00 1020.20 1020.60 1020.72 1020.92 1021.28 1021.80 1022.12 1022.12 1022.00 1022.16 1022.28 1022.48 1022.64 1022.72 1022.72 1022.60 1022.44 1022.36 1022.24 1022.20 1022.28 1022.32 1022.48 1022.60 1022.48 1022.60 1022.84 1023.12 1023.36 1023.76 1024.08 1024.32 1024.52 1024.56 1024.56 1024.56 1024.64 1024.64 1024.68 1024.84 1025.08
1017.96 1017.88 1017.84 1017.92 1018.04 1018.16 1018.36 1018.84 1019.08 1019.20 1019.44 1019.44 1019.24 1019.00 1018.92 1018.92 1019.04 1019.16 1019.24 1019.44 1019.64 1019.84 1020.32 1020.64 1020.72 1021.08 1021.48 1021.80 1021.80 1021.64 1021.92 1022.16 1022.36 1022.40 1022.60 1022.72 1022.72 1022.68 1022.60 1022.56 1022.44 1022.48 1022.60 1022.68 1023.16 1023.08 1022.84 1022.72 1022.88 1023.20 1023.60 1024.04 1024.36 1024.72 1025.20 1025.64 1025.64 1025.44 1025.20 1025.04 1025.08 1025.16 1025.20
1018.00 1017.92 1017.88 1017.88 1017.80 1017.84 1018.08 1018.40 1018.68 1018.80 1018.96 1018.96 1018.88 1018.80 1018.72 1018.76 1018.76 1019.04 1019.60 1019.60 1019.48 1019.64 1020.20 1020.76 1020.96 1021.24 1021.44 1021.40 1021.36 1021.60 1021.96 1022.12 1022.36 1022.64 1022.88 1023.00 1022.88 1022.88 1022.84 1022.72 1022.56 1022.60 1022.68 1023.00 1023.52 1023.36 1023.28 1023.08 1023.04 1023.40 1023.80 1024.24 1024.60 1024.76 1025.16 1025.56 1025.84 1025.80 1025.76 1025.76 1025.84 1025.88 1025.92
1018.04 1018.08 1018.28 1018.08 1017.72 1017.64 1017.72 1017.84 1018.08 1018.44 1018.80 1019.16 1019.40 1019.44 1019.28 1019.32 1019.12 1018.96 1019.20 1019.48 1019.40 1019.52 1020.16 1020.88 1021.00 1021.00 1021.00 1021.20 1021.36 1021.48 1021.60 1021.76 1022.36 1022.72 1022.96 1023.08 1022.96 1023.08 1023.52 1023.48 1023.00 1022.80 1023.00 1023.48 1023.80 1023.60 1023.56 1023.28 1023.20 1023.52 1023.88 1024.24 1024.52 1024.76 1025.28 1025.52 1025.56 1025.84 1026.04 1026.00 1026.04 1026.08 1026.08
1018.04 1017.80 1017.68 1017.68 1017.76 1017.64 1017.64 1017.76 1017.84 1018.20 1018.24 1018.24 1018.52 1019.04 1019.32 1019.16 1019.28 1019.28 1019.24 1019.24 1019.48 1019.52 1020.08 1020.80 1020.84 1020.68 1021.00 1021.36 1021.52 1021.16 1021.28 1021.52 1022.04 1022.40 1022.48 1022.88 1023.00 1023.04 1023.44 1023.84 1023.84 1023.60 1023.68 1023.96 1023.88 1023.80 1023.72 1023.40 1023.32 1023.56 1023.80 1023.96 1024.20 1024.64 1025.12 1025.40 1025.48 1025.52 1025.56 1025.52 1025.60 1025.80 1025.88
1017.96 1017.80 1017.44 1017.52 1017.80 1017.76 1017.72 1017.80 1018.04 1018.20 1018.48 1018.64 1018.92 1019.04 1018.96 1018.92 1019.08 1019.36 1019.52 1019.52 1019.68 1019.48 1019.68 1020.24 1020.68 1020.80 1021.08 1021.32 1021.28 1020.92 1021.00 1021.16 1021.68 1022.24 1022.28 1022.48 1022.88 1023.24 1023.40 1023.68 1024.16 1024.40 1024.16 1024.12 1024.12 1024.04 1023.96 1023.84 1023.60 1023.72 1023.72 1023.84 1024.16 1024.84 1025.24 1025.44 1025.68 1025.64 1025.64 1025.60 1025.52 1025.60 1025.56
1018.04 1017.76 1017.64 1017.52 1017.68 1017.96 1017.92 1017.56 1017.68 1018.04 1018.52 1018.92 1019.08 1019.16 1019.12 1019.04 1019.16 1019.44 1019.56 1019.60 1019.60 1019.76 1019.84 1020.12 1020.88 1020.96 1021.04 1021.24 1021.36 1021.04 1020.92 1021.08 1021.48 1021.88 1022.20 1022.48 1022.60 1023.00 1023.28 1023.64 1024.08 1024.68 1024.44 1024.44 1024.44 1024.48 1024.48 1024.40 1024.24 1024.12 1024.20 1024.32 1024.72 1025.20 1025.40 1025.32 1026.00 1026.04 1025.60 1025.68 1025.56 1025.40 1025.24
1018.12 1017.96 1017.80 1017.68 1017.48 1017.68 1017.96 1017.80 1017.48 1017.52 1017.92 1018.36 1018.72 1019.04 1019.16 1019.00 1019.24 1019.76 1020.12 1020.12 1020.04 1020.20 1020.52 1020.48 1020.68 1021.20 1021.24 1021.32 1021.32 1021.24 1020.96 1021.28 1021.48 1021.80 1022.20 1022.48 1022.68 1022.96 1023.28 1023.64 1024.08 1024.80 1024.72 1024.68 1024.72 1024.80 1024.88 1024.88 1024.92 1024.80 1025.52 1025.76 1025.88 1025.80 1025.56 1025.56 1025.52 1025.48 1025.40 1025.28 1025.16 1025.04 1024.96
1018.12 1017.92 1017.80 1017.84 1017.56 1017.16 1017.64 1017.80 1017.72 1017.52 1017.72 1018.24 1018.48 1018.80 1019.12 1019.28 1019.44 1019.76 1020.12 1020.32 1020.40 1020.44 1020.60 1020.84 1020.96 1021.08 1021.36 1021.32 1021.44 1021.44 1021.36 1021.68 1022.04 1021.84 1021.96 1022.32 1022.68 1023.16 1023.56 1024.00 1024.72 1025.08 1024.96 1025.04 1025.08 1025.20 1025.24 1025.28 1025.24 1025.64 1025.96 1025.96 1026.00 1026.00 1025.72 1025.40 1025.56 1025.44 1025.28 1025.24 1025.24 1025.08 1024.96
1018.12 1017.96 1017.88 1017.92 1018.00 1017.60 1017.40 1017.52 1017.68 1017.60 1017.64 1017.76 1018.20 1018.60 1019.20 1019.12 1019.20 1019.48 1019.92 1020.40 1020.60 1020.64 1020.72 1020.68 1021.32 1021.36 1021.40 1021.48 1021.48 1021.64 1021.84 1022.00 1022.24 1021.96 1022.04 1022.40 1022.88 1023.32 1023.64 1024.04 1024.72 1025.16 1025.16 1025.28 1025.40 1025.44 1025.52 1025.48 1025.76 1026.12 1026.08 1026.12 1026.08 1025.88 1025.48 1025.44 1025.36 1025.40 1025.48 1025.28 1025.16 1024.96 1024.80
Wind_Speed
5 6 5 4 4 4 5 4 3 3 3 3 3 4 5 6 5 5 4 4 4 3 3 3 4 4 4 4 4 3 3 3 4 3 5 5 5 5 3 3 4 3 2 1 2 3 6 7 7 8 9 9 10 9 9 10 10 9 8 8 9 9 8
6 6 5 4 4 4 6 4 4 3 3 3 3 3 3 4 4 4 4 4 3 3 2 3 4 4 5 5 5 4 4 3 3 3 5 5 4 6 6 3 3 4 4 2 2 3 6 7 7 8 9 9 11 9 8 9 9 9 9 8 8 9 8
6 6 5 6 5 4 6 5 4 3 3 3 3 3 3 4 4 4 4 4 4 3 2 2 4 4 4 4 4 4 4 4 3 3 3 4 3 5 4 4 4 4 5 5 4 5 3 3 7 8 7 8 9 7 6 8 9 9 9 8 9 9 8
7 7 7 5 5 5 5 4 4 3 3 3 2 3 3 3 3 3 3 4 3 2 2 2 3 3 4 3 3 4 4 4 3 4 4 4 3 5 5 5 5 4 4 5 5 3 4 6 8 8 7 7 9 8 6 7 8 9 9 8 9 8 8
7 6 6 6 5 6 5 5 3 3 3 3 2 3 3 3 3 3 4 4 4 3 3 2 2 3 3 3 3 3 4 4 5 5 5 5 5 4 3 2 3 3 4 4 3 3 4 6 7 9 8 7 7 7 5 5 8 9 9 9 9 8 8
5 5 5 5 4 5 4 4 4 4 3 3 2 3 3 3 2 3 3 3 3 3 3 4 3 3 3 3 4 5 5 5 5 6 5 5 5 6 5 3 4 4 4 3 3 3 3 4 7 8 6 4 7 6 5 4 5 7 8 8 8 8 7
4 3 3 4 4 4 3 4 3 3 3 3 3 3 3 3 3 3 3 4 3 4 3 4 4 3 3 4 4 5 5 4 4 6 6 5 5 5 4 5 5 5 4 3 4 3 4 5 7 8 8 5 6 7 5 5 3 3 6 7 7 7 7
4 4 4 3 3 4 3 3 3 2 3 3 3 3 3 3 3 3 3 4 3 3 3 4 3 3 3 4 4 5 4 4 5 5 5 6 5 5 5 5 5 5 4 4 3 4 3 3 6 8 9 10 6 5 5 5 6 7 4 6 7 7 7
4 4 4 5 4 4 3 2 3 2 2 3 3 3 4 3 3 3 4 5 4 4 4 4 3 3 3 4 4 4 5 2 4 6 5 5 5 6 6 5 6 6 4 4 4 4 5 5 4 2 3 7 8 7 5 4 4 6 6 3 6 8 7
6 6 4 5 4 4 2 1 2 3 3 2 3 3 4 3 3 3 4 5 4 4 4 4 4 4 3 4 4 5 5 3 3 4 3 5 5 5 5 5 6 5 5 4 4 4 4 4 4 3 1 1 3 6 5 5 4 3 6 6 4 6 7
6 6 4 3 5 4 2 0 2 3 3 3 3 3 4 4 4 4 4 4 4 4 4 4 4 4 4 5 5 5 4 4 5 4 4 4 4 4 5 5 5 6 4 4 4 3 3 3 3 4 5 4 2 3 3 5 4 3 4 4 5 4 5
8 8 8 6 2 6 6 3 2 3 4 4 4 4 4 4 3 3 3 4 4 4 4 4 4 4 4 5 5 5 4 3 5 5 3 4 3 4 4 5 4 4 3 3 3 3 3 3 3 3 4 4 5 5 4 4 5 3 3 4 4 5 5
8 6 5 6 6 3 4 4 3 4 4 4 4 5 4 4 4 4 3 3 4 3 4 4 4 4 4 4 5 5 4 5 6 6 5 3 3 3 4 4 3 4 3 3 4 3 3 2 2 3 4 5 5 4 4 4 6 5 3 3 3 3 3
7 5 6 5 5 4 4 4 3 1 3 4 5 5 5 5 4 4 4 3 3 3 3 3 3 3 4 4 4 4 4 4 5 4 5 5 4 3 4 5 4 3 1 3 3 3 4 4 4 3 3 4 5 3 3 4 5 6 4 2 2 3 3
6 5 5 4 5 5 5 4 4 3 4 3 5 6 6 5 4 4 4 4 4 4 3 4 3 2 3 3 4 2 2 3 3 4 3 4 4 2 3 4 5 4 1 3 3 4 5 5 5 5 4 4 4 4 1 4 5 4 5 3 3 2 2
5 5 4 3 5 5 6 6 6 5 4 3 2 4 6 6 6 5 5 4 4 3 4 3 3 2 2 1 1 2 2 1 2 2 3 3 4 3 3 3 4 3 2 3 3 3 3 4 4 4 5 3 4 4 3 3 4 5 5 4 2 3 2
5 4 6 6 7 6 6 6 6 6 5 4 4 3 5 6 6 6 6 5 4 4 3 3 3 2 3 2 1 1 0 0 1 1 2 2 3 4 4 4 4 4 3 4 4 3 3 3 3 4 5 4 5 5 4 3 3 4 4 4 3 2 2
7 9 8 4 4 4 5 6 6 7 6 5 5 4 5 6 7 7 7 7 6 5 4 4 4 3 3 2 1 1 1 1 1 2 3 3 3 4 4 5 5 6 5 5 4 4 4 5 4 4 4 4 4 4 3 3 3 3 4 4 4 2 1
8 6 3 3 3 1 2 4 5 5 7 7 7 6 7 6 7 8 9 8 8 7 6 5 5 4 3 2 1 0 0 1 2 3 4 4 4 4 5 6 5 5 6 6 6 5 5 7 5 5 5 4 4 4 4 4 3 3 3 3 3 3 2
7 6 7 5 6 6 6 5 6 7 6 8 8 8 8 8 7 7 8 7 7 6 6 5 4 4 3 3 3 2 2 2 3 3 4 5 5 6 6 6 6 6 7 7 7 7 7 7 5 7 6 5 5 5 4 4 3 3 2 3 3 1 2
6 7 6 4 4 6 6 7 7 7 8 8 8 9 9 9 7 7 7 7 7 6 4 3 4 4 3 4 4 4 3 3 4 5 5 5 5 6 6 7 7 7 7 7 7 7 7 7 6 7 5 5 5 5 4 4 3 3 2 2 1 2 1
6 7 7 6 5 5 6 7 8 8 8 7 5 7 7 7 7 7 7 7 7 5 3 2 2 2 4 5 5 6 7 6 6 6 6 6 5 5 6 6 6 6 5 5 6 6 5 5 6 7 6 6 6 6 5 4 4 3 2 2 2 2 1
6 7 8 8 8 9 8 8 9 10 10 8 6 5 7 7 6 6 5 4 4 4 2 2 4 5 5 2 7 6 6 7 6 6 7 7 7 6 5 5 5 5 4 6 8 9 9 8 8 7 7 7 7 6 6 5 4 3 1 2 1 1 2
5 7 7 7 6 9 10 9 11 11 7 7 8 6 4 5 6 5 4 3 5 7 7 7 13 11 11 10 6 6 6 6 6 6 6 6 7 6 5 4 3 3 5 7 8 11 10 10 11 10 7 10 9 7 7 5 4 3 2 1 1 1 1
5 6 7 8 8 8 8 9 10 8 6 8 8 9 10 10 8 7 7 9 9 8 7 8 14 12 11 10 9 6 4 4 4 4 4 5 5 5 5 5 4 3 3 4 4 5 8 10 10 5 4 5 5 9 8 2 3 3 2 2 2 1 2
6 7 7 7 6 6 7 9 9 9 10 10 8 10 10 9 11 11 10 10 9 7 6 9 12 12 12 11 10 6 3 3 3 3 3 3 4 4 4 4 3 2 2 1 4 4 3 5 6 7 9 9 9 8 7 8 8 4 1 2 2 2 2
6 5 4 5 6 8 7 9 9 8 7 7 8 8 9 12 9 9 9 9 9 7 6 9 12 11 11 9 8 6 3 2 1 1 2 2 2 3 3 3 3 3 3 2 2 1 2 4 6 7 7 6 6 6 7 7 7 8 5 2 1 1 2
4 4 3 3 4 7 10 9 7 6 5 6 7 8 10 11 10 8 8 8 7 6 5 11 11 11 8 8 9 6 2 3 2 2 1 1 2 2 3 3 3 3 3 2 3 2 2 4 7 7 7 6 5 4 5 5 5 3 3 2 2 2 3
6 6 6 5 6 6 5 5 5 3 3 6 7 7 8 7 8 8 7 7 7 6 4 7 8 8 9 9 9 4 4 4 3 3 3 4 3 3 3 3 2 2 3 3 5 5 4 5 7 7 7 6 5 5 6 6 7 7 6 5 4 3 3
5 5 6 6 7 8 7 8 7 6 8 8 9 8 7 7 6 5 5 6 7 6 5 6 9 11 11 11 8 5 5 5 4 5 3 2 2 3 4 3 3 3 4 5 6 6 5 3 5 6 6 5 4 4 5 4 6 8 8 9 8 8 7
6 5 5 7 8 7 7 6 7 6 6 5 4 4 3 2 3 6 8 8 7 7 6 7 10 12 13 11 7 7 6 5 5 5 4 3 3 5 7 10 6 5 6 5 6 6 3 1 4 5 5 5 5 4 4 3 2 3 4 4 5 5 5
6 5 5 6 5 6 6 6 4 5 6 7 5 4 5 5 4 4 4 5 7 9 8 7 10 12 12 10 7 5 5 6 6 5 5 5 5 5 6 9 11 9 8 6 8 7 4 2 5 4 4 4 4 4 3 3 2 2 2 2 3 4 4
6 6 6 4 3 5 3 3 4 4 3 2 3 3 4 4 5 4 4 5 5 6 8 6 7 11 11 10 9 6 5 5 5 5 5 5 6 5 6 6 8 9 11 11 11 10 10 8 5 4 3 3 3 4 4 3 2 1 1 0 0 1 2
6 7 6 4 2 3 4 6 6 6 5 3 3 3 3 3 4 4 3 3 4 3 4 7 6 10 10 10 9 7 5 5 6 6 5 5 5 5 5 5 6 7 11 11 12 11 11 11 8 5 4 4 4 5 3 3 3 1 0 1 2 3 3
5 4 5 5 4 4 4 2 5 7 6 6 6 4 4 4 5 5 3 3 4 4 3 4 7 7 10 10 9 4 4 4 5 6 6 5 5 5 5 5 6 6 10 11 11 11 11 10 9 7 7 8 7 4 3 2 1 1 1 2 3 4 4
7 4 4 5 6 6 4 5 4 5 7 6 7 6 5 4 6 6 4 3 3 3 4 4 5 7 8 9 8 5 7 7 5 6 6 6 6 6 6 7 6 7 10 10 11 10 9 9 9 7 8 8 7 4 2 1 1 2 2 3 4 5 5
8 6 4 3 5 6 5 6 5 5 6 7 7 6 5 5 5 6 6 4 3 3 3 4 4 5 7 7 8 9 9 9 7 4 5 6 6 6 7 6 7 9 10 11 12 12 11 10 8 8 8 7 5 2 1 1 1 2 4 4 5 5 6
Wind_Direction
141 139 137 120 114 120 108 97 94 76 53 57 95 111 125 129 127 126 127 126 129 131 156 159 156 151 149 147 168 177 158 169 172 169 167 176 175 136 132 140 131 102 88 54 148 191 143 132 104 82 74 68 65 60 61 62 60 55 53 53 55 56 52
129 130 128 122 116 111 101 91 83 81 70 51 58 97 107 117 129 135 136 139 143 148 164 135 134 141 153 159 169 176 179 174 185 157 164 169 161 142 147 144 145 130 123 93 108 153 138 129 116 115 103 85 72 61 60 62 63 59 56 56 55 57 56
130 125 130 127 121 125 106 100 97 88 79 75 71 75 96 107 119 137 150 147 151 145 146 108 133 144 154 167 177 187 181 172 169 157 143 147 144 149 163 143 135 126 125 121 109 110 92 131 143 142 130 110 89 65 55 63 64 62 60 56 54 52 51
132 132 134 126 126 123 112 104 99 93 79 77 70 71 71 95 109 114 116 122 125 122 120 137 155 148 152 153 156 159 163 161 146 130 127 123 128 145 156 153 148 151 142 145 147 150 147 135 133 132 127 111 110 101 70 57 60 62 62 57 55 50 46
144 148 145 136 133 121 114 110 104 102 90 85 80 88 76 76 96 100 102 106 107 116 114 108 109 123 126 130 133 135 121 119 123 125 119 121 124 125 130 127 120 116 120 131 132 145 151 148 146 139 132 126 114 103 114 85 67 65 57 54 53 54 50
133 135 133 122 119 119 116 117 120 109 110 110 95 92 76 66 72 90 94 94 100 98 110 113 109 111 118 119 116 117 122 127 128 129 128 128 131 129 124 113 120 116 107 98 122 123 100 116 134 134 125 142 123 119 121 135 100 71 58 57 54 48 48
116 111 109 120 112 108 117 118 119 120 122 114 111 80 69 70 68 59 71 79 81 98 102 103 110 113 118 117 117 111 106 98 110 109 112 112 99 106 125 124 110 107 106 108 111 121 127 141 142 139 134 116 125 121 113 105 125 125 75 58 54 52 49
137 130 121 103 108 109 100 104 99 104 114 105 93 86 73 69 74 79 73 85 82 83 89 95 92 94 86 96 96 94 96 108 114 114 116 122 120 124 115 117 117 115 115 118 113 96 104 114 137 143 145 139 136 134 125 114 91 62 83 78 45 52 52
93 99 91 84 78 51 24 91 107 86 74 90 88 92 69 66 72 85 85 71 65 62 60 67 72 85 78 92 98 97 100 85 114 114 120 119 119 121 119 122 119 112 113 108 98 83 75 74 94 140 173 155 148 142 138 116 95 76 33 66 76 45 44
81 71 74 93 95 98 103 36 104 97 93 95 94 91 92 80 73 68 81 83 74 73 73 68 67 68 61 70 78 82 85 72 85 94 96 112 113 120 121 121 112 115 104 90 85 87 84 76 74 69 60 143 153 146 149 113 80 85 63 27 37 53 35
101 91 62 74 103 80 8 170 131 139 126 119 111 107 106 98 90 85 93 93 92 90 89 91 89 91 95 88 82 78 74 83 87 78 72 93 98 104 114 114 115 112 109 104 98 91 94 88 82 76 71 60 52 113 121 118 99 52 81 66 36 42 37
137 141 157 143 148 159 174 197 191 139 132 140 133 129 126 115 108 104 104 103 101 99 97 94 98 95 102 108 103 101 94 104 103 95 81 88 92 105 108 104 104 108 113 109 115 110 105 104 101 95 82 67 65 67 83 116 121 73 12 62 58 45 38
152 150 131 130 148 165 151 180 183 165 158 143 137 137 137 136 134 133 127 120 114 108 102 97 92 98 101 105 118 118 119 131 125 124 124 122 119 117 117 116 106 111 120 128 122 121 116 97 92 102 98 93 89 78 76 72 88 107 68 55 70 73 50
157 149 138 140 140 148 150 165 188 168 146 158 148 149 148 146 144 138 135 128 114 109 105 98 92 102 107 110 110 114 131 141 140 136 140 141 142 141 133 124 120 113 130 124 122 131 125 123 121 110 109 110 104 94 85 96 106 118 122 80 67 74 44
155 148 147 142 147 153 157 160 162 177 194 179 168 157 156 145 142 136 120 116 117 114 107 100 94 104 119 126 124 127 134 152 147 140 154 149 144 136 148 147 141 145 164 146 151 146 141 147 144 138 135 126 114 107 87 100 96 112 126 154 129 125 95
136 128 138 154 160 168 164 160 161 173 189 179 210 165 151 150 141 133 119 112 112 112 116 117 112 107 93 79 110 122 138 152 173 169 174 164 163 152 166 165 157 156 164 169 169 144 153 159 159 138 132 126 117 111 108 105 123 114 129 127 154 132 120
113 153 187 184 176 171 167 159 161 167 175 168 182 172 152 144 136 130 124 119 117 111 106 106 113 104 88 74 39 23 38 222 235 249 246 213 189 187 188 188 183 176 180 189 180 167 174 168 171 142 143 136 134 129 119 123 106 118 131 133 147 127 122
177 195 193 164 151 158 169 166 163 166 163 170 162 156 150 146 144 141 137 137 129 123 117 108 97 93 103 116 125 156 228 241 240 249 250 245 227 224 209 213 200 189 190 201 189 196 178 181 174 163 160 152 146 136 137 127 121 131 129 123 139 153 174
203 222 203 144 125 113 181 175 164 165 172 164 153 155 156 158 159 153 147 141 134 129 128 122 112 104 100 106 112 92 295 276 263 251 241 245 243 233 233 229 219 202 200 208 207 197 186 187 174 176 167 168 152 148 140 137 145 136 122 117 138 150 168
205 218 226 180 156 172 178 175 173 176 173 163 162 161 165 160 161 152 142 138 135 129 126 134 139 130 103 65 35 14 354 309 275 253 247 243 238 238 239 240 231 216 218 220 217 203 193 188 183 187 176 166 167 159 160 162 163 156 137 138 134 116 143
212 224 232 215 177 177 163 164 173 166 172 173 169 163 159 157 148 144 137 126 113 115 127 136 101 86 64 36 6 344 328 294 287 272 254 240 233 236 235 235 233 226 227 230 230 219 201 199 190 192 179 170 170 175 173 168 178 175 159 155 142 141 150
216 226 231 220 194 203 171 168 167 170 171 164 158 159 154 148 152 152 151 147 146 138 121 113 108 96 62 24 348 316 309 298 282 279 276 270 252 240 243 241 237 238 230 245 262 270 246 220 192 194 178 180 178 182 181 186 194 186 165 183 168 176 216
216 224 226 220 201 193 180 168 173 176 177 170 159 155 150 149 147 155 161 165 126 94 169 183 191 148 138 169 258 264 270 267 267 271 274 277 275 262 252 255 252 233 237 230 231 233 238 239 239 233 171 184 178 185 187 192 198 196 193 228 252 333 318
223 228 227 226 201 192 189 180 183 183 171 155 159 154 164 163 170 179 177 168 160 184 198 195 197 189 192 208 213 222 243 263 275 274 271 270 274 281 277 274 283 211 207 214 219 219 226 220 220 246 220 181 178 184 191 190 201 197 214 267 171 201 283
239 238 234 225 216 201 188 184 188 183 166 183 178 185 198 198 199 204 215 210 200 199 203 187 173 180 183 188 208 227 234 253 260 265 270 274 283 295 301 302 299 297 284 283 293 219 206 208 215 213 178 168 85 40 24 353 187 179 197 219 202 206 260
242 238 237 235 227 206 193 195 193 187 196 202 194 198 191 194 215 207 202 203 208 208 206 166 172 170 174 190 200 215 230 231 248 262 284 299 306 307 309 309 307 303 324 165 233 244 235 168 141 121 118 98 79 70 68 55 34 17 259 244 250 210 235
231 226 223 229 229 223 212 206 203 203 203 200 203 203 195 209 209 201 196 200 199 194 195 166 171 169 184 183 169 182 219 190 234 349 354 356 338 327 326 321 323 332 6 347 332 268 211 162 146 140 145 145 117 103 81 70 69 54 40 14 311 280 105
236 222 216 221 226 226 225 222 218 220 214 213 212 206 202 208 208 198 194 194 188 179 173 159 172 178 174 154 165 183 136 108 95 75 61 42 20 8 354 344 338 341 358 4 21 351 174 156 146 137 126 105 95 79 59 45 37 44 57 58 61 73 101
233 232 223 214 216 220 214 218 231 213 227 236 234 220 206 203 193 191 184 181 182 176 143 164 161 150 140 152 146 135 122 126 127 108 69 43 28 25 21 11 18 39 45 53 58 55 60 124 125 120 110 106 101 87 70 51 37 35 40 51 64 69 79
248 236 227 220 220 220 217 207 202 191 205 213 218 212 204 200 194 165 172 194 183 160 144 145 144 145 144 136 124 132 141 134 115 100 84 77 73 56 41 33 58 68 68 67 35 69 79 97 120 120 116 110 103 102 95 80 50 47 53 58 54 55 58
256 227 218 225 222 217 214 208 205 186 190 205 218 231 200 199 191 184 185 188 188 157 143 142 150 138 131 132 145 150 152 129 120 115 112 88 87 79 57 36 36 82 81 74 59 71 55 139 127 123 126 126 128 120 113 112 123 88 82 83 75 73 74
272 252 233 227 223 223 209 203 193 173 198 206 197 169 189 185 171 169 179 166 155 149 136 137 138 128 133 150 178 152 144 136 129 127 119 104 89 90 80 56 44 54 74 85 79 72 53 105 122 129 135 139 136 129 117 139 134 140 152 172 150 158 181
282 270 257 235 227 228 204 177 164 174 160 167 156 165 163 149 134 121 129 142 148 139 127 125 133 139 149 162 183 163 154 143 137 131 124 123 113 96 91 86 68 61 76 74 71 66 57 44 91 114 133 136 134 122 132 127 70 37 114 7 15 255 275
315 293 279 252 198 218 214 177 149 145 138 136 139 131 116 103 96 91 72 73 100 89 103 129 140 152 151 163 180 175 155 149 142 142 135 130 128 124 110 92 90 70 79 77 74 69 63 52 47 75 64 79 61 78 106 137 114 275 348 304 265 264 266
323 308 296 271 198 203 224 247 151 148 143 146 138 125 120 106 104 99 80 80 103 115 97 106 138 151 156 161 166 181 165 142 136 138 138 136 131 123 116 113 107 92 90 88 86 84 77 68 58 78 71 83 90 93 94 88 111 224 257 274 292 290 287
330 328 321 288 261 202 187 194 192 152 144 144 134 134 131 132 126 122 122 116 113 109 118 115 119 141 148 149 147 132 118 129 142 153 151 146 131 120 114 109 102 95 89 86 82 82 86 94 85 86 100 94 91 116 186 96 14 291 305 300 299 293 291
323 320 332 337 299 282 193 186 189 180 169 156 149 140 153 153 136 134 137 137 134 134 123 123 88 101 130 125 122 123 127 132 156 140 130 128 123 121 127 120 112 107 97 93 87 79 69 68 91 102 100 105 120 142 31 12 305 325 301 292 291 296 298